This demonstration page uses our WeatherBlox Daily Observations layout. Learn more.

Left ArrowRight Arrow

47.50024, -111.30081

Hourly Observations for October 6, 2019

Temp ( °F °C ) Dew Point ( °F °C ) Humidity (%) Winds ( mph kmh ) Pressure ( in mb ) Visibility ( mi km ) Precip ( " mm )
12:53 am 00:53 Clear 38 3.3 27 -2.8 65 65 SW 14 22 30.19 1023 10 16 0.00 0.00
1:53 am 01:53 Clear 38 3.3 27 -2.8 65 65 SW 12 19 30.21 1023 10 16 0.00 0.00
2:53 am 02:53 Clear 38 3.3 28 -2.2 68 68 SW 13 20 30.22 1023 10 16 0.00 0.00
3:53 am 03:53 Clear 37 2.8 27 -2.8 67 67 SW 13 20 30.23 1024 10 16 0.00 0.00
4:53 am 04:53 Clear 36 2.2 27 -2.8 70 70 SW 10 17 30.25 1024 10 16 0.00 0.00
5:53 am 05:53 Clear 37 2.8 27 -2.8 67 67 SW 12 19 30.25 1024 10 16 0.00 0.00
6:53 am 06:53 Clear 37 2.8 28 -2.2 70 70 SW 13 20 30.28 1025 10 16 0.00 0.00
7:53 am 07:53 Sunny 37 2.8 28 -2.2 70 70 SW 13 20 30.28 1025 10 16 0.00 0.00
8:53 am 08:53 Sunny 42 5.6 29 -1.7 60 60 SW 15 24 30.29 1026 10 16 0.00 0.00
9:53 am 09:53 Sunny 48 8.9 29 -1.7 48 48 SW 18 30 30.27 1025 10 16 0.00 0.00
10:53 am 10:53 Sunny 51 10.6 27 -2.8 39 39 SW 22 35 30.27 1025 10 16 0.00 0.00
11:53 am 11:53 Sunny 53 11.7 26 -3.3 35 35 SW 21 33 30.26 1025 10 16 0.00 0.00
12:53 pm 12:53 Sunny 56 13.3 26 -3.3 32 32 WSW 22 35 30.25 1024 10 16 0.00 0.00
1:53 pm 13:53 Sunny 58 14.4 26 -3.3 29 29 SW 20 31 30.23 1024 10 16 0.00 0.00
2:53 pm 14:53 Sunny 58 14.4 26 -3.3 29 29 SW 21 33 30.21 1023 10 16 0.00 0.00
3:53 pm 15:53 Sunny 60 15.6 27 -2.8 28 28 SW 17 28 30.19 1022 10 16 0.00 0.00
4:53 pm 16:53 Sunny 58 14.4 26 -3.3 29 29 WSW 18 30 30.19 1022 10 16 0.00 0.00
5:53 pm 17:53 Sunny 56 13.3 26 -3.3 32 32 SW 18 30 30.18 1022 10 16 0.00 0.00
6:53 pm 18:53 Sunny 50 10 27 -2.8 41 41 SW 13 20 30.18 1022 10 16 0.00 0.00
7:53 pm 19:53 Clear 47 8.3 28 -2.2 48 48 SW 13 20 30.19 1022 10 16 0.00 0.00
8:53 pm 20:53 Clear 46 7.8 27 -2.8 47 47 WSW 12 19 30.17 1022 10 16 0.00 0.00
9:53 pm 21:53 Clear 46 7.8 26 -3.3 46 46 SW 13 20 30.16 1021 10 16 0.00 0.00
10:53 pm 22:53 Clear 46 7.8 25 -3.9 44 44 SW 13 20 30.14 1021 10 16 0.00 0.00
11:53 pm 23:53 Clear 47 8.3 23 -5 39 39 SW 15 24 30.11 1020 10 16 0.00 0.00

Powered by AerisWeather